Location: Hawks Ness
(60.2333°N, 1.1667°W)
Time: 08:10:37
(UTC+00:00)

Cosmos 2322 Rocket - Pass Details

Date: 22 October 2019
Orbit: 833 x 850 km, 71.0° (Epoch: 17 November)

Event Time Altitude Azimuth Distance (km) Brightness Sun altitude
Exits shadow 01:07:44 21° 65° (ENE) 1,820 4.3 -38.6°
Drops below altitude 10° 01:09:51 10° 49° (NE) 2,457 5.2 -38.4°
Sets 01:12:31 0° 40° (NE) 3,396 6.2 -38.3°
